Flag for Brazil Weather past 2 weeks in Salvador, Bahia, Brazil

Now
77 °F

Passing clouds.


Feels Like: 79 °F
Forecast: 74 / 79 °F
Wind: 7 mph from South

Location: Salvador Aeroporto

Current Time: Oct 22, 2014 at 9:37:36 PM

Latest Report: Oct 22, 2014 at 9:00 PM


Visibility: N/A

Pressure: 30.07 "Hg

Humidity: 61%

Dew point: 63 °F

Location of SalvadorLocation

Historic Weather in Salvador — Graph

°F

Salvador temperature yesterday

Maximum temperature yesterday: 84 °F (at 12:00 PM)
Minimum temperature yesterday: 77 °F (at 12:00 AM)
Average temperature yesterday: 79 °F

Past Weeks' High & Low Weather Summary

 TemperatureHumidityPressure
High84 °F (Oct 14, 3:00 PM)89% (Oct 12, 8:00 AM)30.12 "Hg (Oct 12, 8:00 AM)
Low72 °F (Oct 15, 5:00 AM)55% (Oct 14, 3:00 PM)29.86 "Hg (Oct 20, 2:00 PM)
Average78 °F71%30.01 "Hg
* Reported Oct 7 8:00 PM — Oct 22 8:00 PM, Salvador, Weather by CustomWeather, © 2014

Note: Actual official high and low records may vary slightly from our data, if they occured in-between our weather recording intervals... More about our weather records

Advertising

Salvador weather history for previous 24 hours

 ConditionsComfort  
Time TempWeatherWind HumidityBarometerVisibility
8:00 PM
Oct 22
77 °FPassing clouds.6 mph57%30.04 "HgN/A
7:00 PM77 °FPassing clouds.10 mph61%30.01 "HgN/A
6:00 PM79 °FScattered clouds.8 mph61%30.01 "HgN/A
5:00 PM81 °FScattered clouds.9 mph62%29.98 "HgN/A
4:00 PM81 °FPassing clouds.10 mph62%29.95 "HgN/A
3:00 PM81 °FPassing clouds.12 mph58%29.95 "HgN/A
2:00 PM82 °FPassing clouds.12 mph58%29.98 "HgN/A
1:00 PM82 °FPassing clouds.13 mph58%29.98 "HgN/A
12:00 PM82 °FScattered clouds.10 mph55%30.01 "HgN/A
11:00 AM82 °FPassing clouds.14 mph58%30.04 "HgN/A
10:00 AM81 °FPassing clouds.15 mph66%30.04 "HgN/A
9:00 AM82 °FPassing clouds.12 mph58%30.04 "HgN/A
8:00 AM81 °FPassing clouds.12 mph62%30.04 "HgN/A
7:00 AM79 °FPassing clouds.12 mph65%30.01 "HgN/A
6:00 AM77 °FPassing clouds.8 mph69%29.98 "HgN/A
5:00 AM77 °FPartly cloudy.8 mph69%29.98 "HgN/A
4:00 AM75 °FPassing clouds.7 mph78%29.95 "HgN/A
3:00 AM77 °FPassing clouds.9 mph69%29.95 "HgN/A
1:00 AM77 °FPassing clouds.9 mph74%29.98 "HgN/A
12:00 AM77 °FPassing clouds.8 mph74%29.98 "HgN/A
11:00 PM
Oct 21
77 °FPassing clouds.9 mph74%29.98 "HgN/A
10:00 PM77 °FPassing clouds.7 mph74%30.01 "HgN/A
9:00 PM77 °FPassing clouds.8 mph74%29.98 "HgN/A
Weather by CustomWeather, © 2014

See weather overviewHow to use our weather pages